TimeCET,TemperatureF,Dew PointF,Humidity,Sea Level PressureIn,VisibilityMPH,Wind Direction,Wind SpeedMPH,Gust SpeedMPH,PrecipitationIn,Events,Conditions,WindDirDegrees,DateUTC
12:00 AM,37.4,32.0,81,29.77,6.2,SSW,10.4,-,N/A,,Mostly Cloudy,210,2012-10-30 23:00:00
12:30 AM,37.4,32.0,81,29.77,6.2,SSW,12.7,-,N/A,,Mostly Cloudy,200,2012-10-30 23:30:00
1:00 AM,38,32,71,29.81,9,SSW,13.4,,,,Partly Cloudy,200,2012-10-31 00:00:00
1:00 AM,39.2,32.0,75,29.77,6.2,SSW,10.4,-,N/A,,Mostly Cloudy,210,2012-10-31 00:00:00
1:30 AM,37.4,32.0,81,29.77,6.2,SSW,12.7,-,N/A,,Mostly Cloudy,200,2012-10-31 00:30:00
2:00 AM,37.4,32.0,81,29.77,6.2,SSW,12.7,-,N/A,,Mostly Cloudy,210,2012-10-31 01:00:00
2:30 AM,37.4,33.8,87,29.77,6.2,SW,5.8,-,N/A,,Mostly Cloudy,230,2012-10-31 01:30:00
3:00 AM,39.2,33.8,81,29.77,6.2,SSW,10.4,-,N/A,,Mostly Cloudy,210,2012-10-31 02:00:00
3:30 AM,37.4,33.8,87,29.77,6.2,SSW,13.8,-,N/A,,Partly Cloudy,210,2012-10-31 02:30:00
4:00 AM,39.2,33.8,81,29.77,6.2,SW,8.1,-,N/A,,Mostly Cloudy,220,2012-10-31 03:00:00
4:30 AM,39.2,33.8,81,29.77,6.2,SW,8.1,-,N/A,,Mostly Cloudy,230,2012-10-31 03:30:00
5:00 AM,39.2,33.8,81,29.77,6.2,SW,8.1,-,N/A,,Overcast,220,2012-10-31 04:00:00
5:30 AM,39.2,33.8,81,29.80,6.2,SSW,10.4,-,N/A,,Overcast,210,2012-10-31 04:30:00
6:00 AM,39.2,33.8,81,29.80,6.2,SW,9.2,-,N/A,,Overcast,220,2012-10-31 05:00:00
6:30 AM,39.2,33.8,81,29.80,6.2,SSW,9.2,-,N/A,,Overcast,210,2012-10-31 05:30:00
7:00 AM,38,34,78,29.87,7,West,6.7,,,,Overcast,260,2012-10-31 06:00:00
7:00 AM,39.2,33.8,81,29.83,6.2,West,5.8,-,N/A,,Overcast,260,2012-10-31 06:00:00
7:30 AM,39.2,33.8,81,29.83,6.2,WSW,5.8,-,N/A,,Overcast,240,2012-10-31 06:30:00
8:00 AM,39.2,33.8,81,29.83,6.2,WSW,6.9,-,N/A,,Mostly Cloudy,250,2012-10-31 07:00:00
8:30 AM,39.2,33.8,81,29.83,6.2,WSW,6.9,-,N/A,,Scattered Clouds,240,2012-10-31 07:30:00
9:00 AM,39.2,33.8,81,29.83,6.2,WSW,5.8,-,N/A,,Partly Cloudy,250,2012-10-31 08:00:00
9:30 AM,42.8,35.6,76,29.83,-9999.0,WSW,5.8,-,N/A,,Clear,250,2012-10-31 08:30:00
10:00 AM,44.6,35.6,71,29.83,-9999.0,SW,10.4,-,N/A,,Clear,220,2012-10-31 09:00:00
10:30 AM,46.4,35.6,66,29.83,-9999.0,SW,11.5,-,N/A,,Clear,220,2012-10-31 09:30:00
11:00 AM,46.4,35.6,66,29.83,-9999.0,SW,10.4,-,N/A,,Clear,220,2012-10-31 10:00:00
11:30 AM,48.2,35.6,62,29.83,-9999.0,SSW,11.5,-,N/A,,Clear,210,2012-10-31 10:30:00
12:00 PM,48.2,35.6,62,29.83,6.2,SW,10.4,-,N/A,,Partly Cloudy,220,2012-10-31 11:00:00
12:30 PM,48.2,35.6,62,29.83,6.2,South,8.1,-,N/A,,Partly Cloudy,190,2012-10-31 11:30:00
1:00 PM,50,35,43,29.83,19,South,8.9,,,,Scattered Clouds,190,2012-10-31 12:00:00
1:00 PM,50.0,33.8,54,29.80,6.2,South,6.9,-,N/A,,Partly Cloudy,190,2012-10-31 12:00:00
1:30 PM,50.0,35.6,58,29.80,6.2,South,8.1,-,N/A,,Partly Cloudy,190,2012-10-31 12:30:00
2:00 PM,50.0,35.6,58,29.80,6.2,South,6.9,-,N/A,,Partly Cloudy,190,2012-10-31 13:00:00
2:30 PM,50.0,33.8,54,29.80,6.2,South,8.1,-,N/A,,Partly Cloudy,190,2012-10-31 13:30:00
3:00 PM,50.0,33.8,54,29.80,6.2,South,8.1,-,N/A,,Partly Cloudy,190,2012-10-31 14:00:00
3:30 PM,48.2,33.8,58,29.80,6.2,South,6.9,-,N/A,,Partly Cloudy,170,2012-10-31 14:30:00
4:00 PM,48.2,33.8,58,29.80,6.2,South,9.2,-,N/A,,Partly Cloudy,180,2012-10-31 15:00:00
4:30 PM,46.4,33.8,62,29.80,-9999.0,SSE,5.8,-,N/A,,Clear,160,2012-10-31 15:30:00
5:00 PM,44.6,33.8,66,29.80,-9999.0,South,6.9,-,N/A,,Clear,170,2012-10-31 16:00:00
5:30 PM,42.8,33.8,70,29.80,-9999.0,South,8.1,-,N/A,,Clear,190,2012-10-31 16:30:00
6:00 PM,42.8,33.8,70,29.80,6.2,South,6.9,-,N/A,,Partly Cloudy,190,2012-10-31 17:00:00
6:30 PM,41.0,33.8,76,29.80,6.2,South,4.6,-,N/A,,Partly Cloudy,190,2012-10-31 17:30:00
7:00 PM,42,34,64,29.81,19,South,4.5,,,,Scattered Clouds,180,2012-10-31 18:00:00
7:00 PM,42.8,33.8,70,29.77,-9999.0,South,4.6,-,N/A,,Clear,180,2012-10-31 18:00:00
7:30 PM,41.0,33.8,76,29.77,-9999.0,Variable,2.3,-,N/A,,Clear,0,2012-10-31 18:30:00
8:00 PM,37.4,32.0,81,29.77,-9999.0,West,4.6,-,N/A,,Clear,260,2012-10-31 19:00:00
8:30 PM,39.2,33.8,81,29.77,-9999.0,Variable,3.5,-,N/A,,Clear,0,2012-10-31 19:30:00
9:00 PM,37.4,33.8,87,29.77,-9999.0,Variable,2.3,-,N/A,,Clear,0,2012-10-31 20:00:00
9:30 PM,37.4,33.8,87,29.77,-9999.0,Variable,2.3,-,N/A,,Clear,0,2012-10-31 20:30:00
10:00 PM,35.6,32.0,87,29.77,-9999.0,Variable,2.3,-,N/A,,Clear,0,2012-10-31 21:00:00
10:30 PM,46.4,35.6,66,29.74,-9999.0,South,9.2,-,N/A,,Clear,170,2012-10-31 21:30:00
11:00 PM,41.0,32.0,70,29.74,-9999.0,South,8.1,-,N/A,,Clear,190,2012-10-31 22:00:00
11:30 PM,41.0,32.0,70,29.74,-9999.0,SW,6.9,-,N/A,,Clear,220,2012-10-31 22:30:00